Regional Weather Roundup
Issued by NWS Burlington, VT

Home | Current Version | Previous Version | Text Only | Print | Product List | Glossary On
Versions: 1 2 3 4 5 6 7 8 9 10 11 12 13 14 15 16 17 18 19 20 21 22 23 24 25 26 27 28 29 30 31 32 33 34 35 36 37 38 39 40 41 42 43 44 45 46 47 48 49 50
000
ASUS41 KBTV 210330
RWRBTV
VERMONT REGIONAL WEATHER ROUNDUP
NATIONAL WEATHER SERVICE BURLINGTON VT
1000 PM EST MON FEB 20 2017

NOTE: "FAIR" INDICATES FEW OR NO CLOUDS BELOW 12,000 FEET WITH NO
SIGNIFICANT WEATHER AND/OR OBSTRUCTIONS TO VISIBILITY.

* THESE REPORTS ARE NOT UNDER NWS QUALITY CONTROL AND/OR DO NOT
  REPORT WEATHER SUCH AS PRECIPITATION AND FOG.

VTZ001>019-210400-
_____VERMONT_____


CITY           SKY/WX    TMP DP  RH WIND       PRES   REMARKS
BURLINGTON     CLOUDY    25  16  68 CALM      30.42R
MONTPELIER     CLOUDY    19  12  74 S3        30.40R
MORRISVILLE    CLOUDY    17  11  77 CALM      30.41R
ST. JOHNSBURY*   N/A     22  15  75 MISG      30.37R
LYNDONVILLE*   FAIR      23  11  61 CALM      30.38R
MIDDLEBURY*    FAIR      23  10  55 CALM      30.39S
RUTLAND*       CLOUDY    25  15  66 CALM      30.38S
SPRINGFIELD    CLEAR     23  13  65 CALM      30.38S
HIGHGATE*      FAIR      19  16  86 CALM      30.43R
NEWPORT*       FAIR      16   9  74 CALM      30.39R
BENNINGTON     CLOUDY    24  10  55 CALM      30.35S
SUTTON*          N/A     18 N/A N/A MISG        N/A
ISLAND POND*     N/A     10 N/A N/A CALM        N/A
GALLUP MILLS*    N/A     14 N/A N/A MISG        N/A
UNION VILLAGE*   N/A     21 N/A N/A MISG        N/A
MT. MANSFIELD*   N/A     16 N/A N/A SE3         N/A

_____LAKE CHAMPLAIN_____


CITY           SKY/WX    TMP DP  RH WIND       PRES   REMARKS
BURTON ISLAND*   N/A     27  21  80 E3          N/A
COLCHESTER RF*   N/A     32  23  69 NE6         N/A  WCI  26
DIAMOND ISL*     N/A     30  19  64 NE3         N/A

$$

NYZ007-026>031-035-052-083-087-210400-
_____NORTHERN NEW YORK_____


CITY           SKY/WX    TMP DP  RH WIND       PRES   REMARKS
PLATTSBURGH    CLOUDY    23  16  74 CALM      30.42R
SARANAC LAKE   CLOUDY    12   8  84 CALM      30.31S
MASSENA        CLOUDY    19  15  84 CALM      30.43R
OGDENSBURG*    FAIR      17  15  91 CALM      30.40F
POTSDAM*       CLEAR     19  16  86 CALM      30.40S
STARK FALLS*     N/A     21 N/A N/A E1          N/A
WATERTOWN      CLOUDY    23  15  71 E6        30.39S WCI  16
FT DRUM        CLOUDY    24  14  64 SE3       30.37S
ALBANY         CLEAR     30  12  47 N3        30.40R
GLENS FALLS    CLEAR     24  15  68 E5        30.40S WCI  18

$$
NHZ002-005-011-210400-
_____NEW HAMPSHIRE_____


CITY           SKY/WX    TMP DP  RH WIND       PRES   REMARKS
LEBANON        CLEAR     23  14  68 CALM      30.38R
KEENE          CLEAR     24  16  71 CALM      30.37R
MT WASHINGTON  CLEAR     12   0  57 NE37        N/A  WCI -11
PLYMOUTH       FAIR      29  14  52 W8        30.36R WCI  21
WHITEFIELD     CLEAR     20  11  68 CALM      30.35R

$$

_____REGIONAL QUEBEC LOCATIONS_____


CITY           SKY/WX    TMP DP  RH WIND       PRES   REMARKS
MONTREAL       CLEAR     27  12  54 SW3       30.42R
QUEBEC CITY    CLEAR     23  18  80 NE6       30.40R WCI  16
SHERBROOKE     CLEAR     18  10  73 CALM      30.37R

_____REGIONAL ONTARIO LOCATIONS_____


CITY           SKY/WX    TMP DP  RH WIND       PRES   REMARKS
OTTAWA         CLEAR     25  10  54 CALM      30.40S

______KEY______
VSB  - VISIBILITY IN MILES
WCI  - WIND CHILL INDEX
HX   - HEAT INDEX
$$
NNNN




USA.gov is the U.S. government's official web portal to all federal, state and local government web resources and services.